This demonstration page uses our WeatherBlox Daily Observations layout. Learn more.

Left ArrowRight Arrow

39.95238, -75.16362

Hourly Observations for February 28, 2017

Temp ( °F °C ) Dew Point ( °F °C ) Humidity (%) Winds ( mph kmh ) Pressure ( in mb ) Visibility ( mi km ) Precip ( " mm )
12:54 am 00:54 Cloudy 48 8.9 33 0.6 56 56 SW 3 6 30.38 1029 10 16 0.00 0.00
1:54 am 01:54 Cloudy 48 8.9 34 1.1 58 58 S 3 6 30.37 1028 10 16 0.00 0.00
2:54 am 02:54 Cloudy 46 7.8 35 1.7 66 66 Calm 30.35 1028 10 16 0.00 0.00
3:54 am 03:54 Cloudy 45 7.2 36 2.2 71 71 E 3 6 30.34 1027 10 16 0.00 0.00
4:54 am 04:54 Cloudy 46 7.8 36 2.2 68 68 Calm 30.34 1027 10 16 0.00 0.00
5:54 am 05:54 Cloudy 45 7.2 36 2.2 71 71 E 3 6 30.34 1027 10 16 0.00 0.00
6:54 am 06:54 Mostly Cloudy 43 6.1 36 2.2 76 76 Calm 30.33 1027 10 16 0.00 0.00
7:54 am 07:54 Mostly Cloudy 46 7.8 38 3.3 73 73 VRB 3 6 30.34 1027 10 16 0.00 0.00
8:54 am 08:54 Mostly Sunny 51 10.6 37 2.8 59 59 E 7 11 30.33 1027 10 16 0.00 0.00
9:54 am 09:54 Mostly Sunny 56 13.3 40 4.4 55 55 NE 6 9 30.32 1027 10 16 0.00 0.00
10:54 am 10:54 Mostly Cloudy 58 14.4 43 6.1 58 58 Calm 30.30 1026 10 16 0.00 0.00
11:54 am 11:54 Mostly Cloudy 61 16.1 44 6.7 54 54 VRB 3 6 30.28 1025 10 16 0.00 0.00
12:54 pm 12:54 Mostly Cloudy 64 17.8 45 7.2 50 50 VRB 7 11 30.24 1024 10 16 0.00 0.00
1:54 pm 13:54 Cloudy 65 18.3 46 7.8 51 51 SSW 7 11 30.19 1022 10 16 0.00 0.00
2:54 pm 14:54 Cloudy 66 18.9 47 8.3 50 50 SW 7 11 30.16 1021 10 16 0.00 0.00
3:54 pm 15:54 Cloudy 65 18.3 48 8.9 54 54 S 9 15 30.14 1021 10 16 0.00 0.00
4:54 pm 16:54 Cloudy 64 17.8 49 9.4 58 58 S 8 13 30.13 1020 10 16 0.00 0.00
5:54 pm 17:54 Cloudy with Light Rain 61 16.1 52 11.1 72 72 SSW 8 13 30.16 1021 10 16 0.00 0.03
6:23 pm 18:23 Cloudy with Rain 61 16.1 52 11.1 72 72 SSW 13 20 30.15 1021 7 11 0.02 0.51
6:30 pm 18:30 Cloudy with Heavy Rain 61 16.1 53 11.7 75 75 SSW 9 15 30.15 1021 4 6 0.05 1.27
6:48 pm 18:48 Cloudy with Light Rain 59 15 52 11 77 77 S 10 17 30.12 1020 6 10 0.11 2.79
6:54 pm 18:54 Cloudy with Light Rain 59 15 52 11.1 78 78 S 9 15 30.12 1020 6 10 0.11 2.79
7:05 pm 19:05 Cloudy with Light Rain 59 15 53 11.7 81 81 S 12 19 30.12 1020 7 11 0.03 0.76
7:54 pm 19:54 Cloudy with Light Rain 58 14.4 53 11.7 84 84 SSE 13 20 30.09 1019 9 14 0.06 1.52
8:12 pm 20:12 Cloudy with Light Rain 59 15 53 11.7 81 81 W 9 15 30.12 1020 10 16 0.01 0.25
8:54 pm 20:54 Cloudy 58 14.4 53 11.7 84 84 SSW 10 17 30.09 1019 10 16 0.01 0.25
9:54 pm 21:54 Cloudy 57 13.9 53 11.7 87 87 SSW 7 11 30.06 1018 10 16 0.00 0.00
10:54 pm 22:54 Cloudy with Light Rain 57 13.9 54 12.2 90 90 WSW 3 6 30.03 1017 10 16 0.00 0.03
11:18 pm 23:18 Cloudy with Light Rain 57 13.9 55 12.8 93 93 SSW 7 11 30.03 1017 7 11 0.00 0.03
11:54 pm 23:54 Cloudy 57 13.9 55 12.8 93 93 SSW 8 13 29.99 1016 9 14 0.00 0.03

Powered by AerisWeather